Regional Weather Roundup
Issued by NWS

Home | Current Version | Previous Version | Text Only | Print | Product List | Glossary Off
Versions: 1 2 3 4 5 6 7 8 9 10 11 12 13 14 15 16 17 18 19 20 21 22 23 24 25 26 27 28 29 30 31 32 33 34 35 36 37 38 39 40 41 42 43 44 45 46 47 48 49 50

000
ASUS45 KTFX 081310
RWRMT
MONTANA REGIONAL WEATHER ROUNDUP
NATIONAL WEATHER SERVICE GREAT FALLS MT
600 AM MST THU DEC 08 2016

NOTE: "FAIR" INDICATES FEW OR NO CLOUDS BELOW 12000 FEET WITH NO
SIGNIFICANT WEATHER AND/OR OBSTRUCTIONS TO VISIBILITY.

MTZ001>007-043-081400-
WEST OF THE DIVIDE

CITY           SKY/WX    TMP DP  RH WIND       PRES   REMARKS
KALISPELL      MOCLDY     2  -8  63 N9        30.43F WCI -13
MISSOULA       PTCLDY     7   0  73 E9        30.40F WCI  -7
BUTTE          CLOUDY    -7 -12  79 S3        30.23F
MULLAN PASS    CLOUDY    -1  -4  87 SE7       30.08F FOG     WCI -14
ANACONDA         N/A     -8 -13  77 SW8       30.27S WCI -23
DEER LODGE       N/A     -4  -9  77 CALM      30.31F
EUREKA           N/A     -2  -8  78 CALM      30.51F
HAMILTON         N/A     10   3  72 CALM      30.35F
LIBBY            N/A      9   7  92 CALM      30.45F
PLAINS           N/A     15   5  64 CALM      30.41S
RONAN            N/A     12   6  77 S6        30.37F WCI   3
THOMPSON FALLS   N/A     10   4  77 CALM      30.44F
$$

MTZ008-052>055-081400-
SOUTHWEST MONTANA

CITY           SKY/WX    TMP DP  RH WIND       PRES   REMARKS
BOZEMAN        CLOUDY    -3 -10  72 CALM      30.36S
DILLON         CLOUDY    -6 -13  71 S12       30.27S WCI -25
W YELLOWSTONE  CLOUDY   -24 -31  69 CALM      30.24S
ENNIS          CLEAR     -9 -15  77 NE3       30.31S
THREE FORKS      N/A     -5 -59   6 CALM      30.32S
TWIN BRIDGES     N/A     -4 -14  62 CALM      30.24F
$$

MTZ009-010-012-014-046-048-049-054-081400-
EAST SLOPES AND CENTRAL MONTANA

CITY           SKY/WX    TMP DP  RH WIND       PRES   REMARKS
CUT BANK       CLOUDY    -9 -13  83 CALM      30.48S
GREAT FALLS    CLOUDY    -3  -9  75 NE6       30.48F WCI -15
MALMSTROM AFB  CLOUDY    -3  -6  86 NE5       30.52S
HELENA         CLOUDY     0  -7  72 SW6       30.42S WCI -12
BOWMANS CRNR   FLURRIES  -6  -9  86 NE9       30.38S WCI -23
CHOTEAU          N/A     -6  -9  84 MISG      30.48S
CONRAD           N/A     -5 -10  79 W2        30.45F
FAIRFIELD      FLURRIES  -6 -11  76 N1        30.46S
POWER          CLOUDY    -6 -11  79 N6        30.47S WCI -18
RAYNESFORD     MOCLDY    -3  -8  79 SE2       30.44S
$$

MTZ011-013-016-021-045-047-050-051-081400-
NORTH CENTRAL MONTANA

CITY           SKY/WX    TMP DP  RH WIND       PRES   REMARKS
HAVRE          CLOUDY   -12 -16  82 CALM      30.64S
LEWISTOWN      CLOUDY    -4  -9  79 E3        30.43F
N BAR RANCH    CLOUDY    -4 -11  71 CALM      30.42F
CHINOOK          N/A    -11 -17  77 CALM      30.67S
DENTON         CLOUDY    -5 -10  82 SE12      30.47F WCI -24
GEYSER         FLURRIES  -4  -8  82 E5        30.43F
GRASS RANGE    MOCLDY    -6 -10  81 W3        30.44F
JUDITH GAP     FLURRIES  -2  -7  81 S12       30.36F WCI -20
STANFORD       FLURRIES  -6  -9  86 E2        30.40S
WINIFRED       MOCLDY    -8 -11  84 MISG      30.49S
$$

MTZ017>020-022>027-061-062-081400-
NORTHEAST MONTANA

CITY           SKY/WX    TMP DP  RH WIND       PRES   REMARKS
GLASGOW        MOCLDY    -7 -11  83 W5        30.65S
JORDAN           N/A    -11 -17  75 W3        30.63R
SIDNEY         FLURRIES   1  -5  75 NW8       30.66S WCI -13
WOLF POINT     CLOUDY     0  -6  76 W8        30.69R WCI -14
PLENTYWOOD       N/A     -8 -11  84 W10       30.61S WCI -26
POPLAR           N/A      0  -8  71 W8        30.67S WCI -15
SCOBEY           N/A    -10 -24  50 NW6       30.54R WCI -23
$$

MTZ028>42-056>058-081400-
SOUTHCENTRAL AND SOUTHEAST MONTANA

CITY           SKY/WX    TMP DP  RH WIND       PRES   REMARKS
BAKER          CLOUDY    -7 -12  79 W10       30.57R WCI -25
BILLINGS       PTCLDY    -2  -8  76 CALM      30.50S
LIVINGSTON     CLOUDY    -4  -8  83 SE8       30.35S WCI -19
MILES CITY     CLEAR     -8 -14  74 W8        30.63S WCI -24
BIG TIMBER     CLEAR     -2  -8  78 CALM      30.42S
EKALAKA          N/A     -7 -15  68 SW10      30.42  WCI -25
FORSYTH          N/A     -2  -8  78 CALM      30.62S
HARLOWTON      FLURRIES  -1  -5  84 E5        30.41S
LAUREL           N/A     -2 -12  62 N5        30.42S
$$

REGIONAL REPORTS...DAKOTAS

CITY           SKY/WX    TMP DP  RH WIND       PRES   REMARKS
WILLISTON      CLOUDY     1  -6  72 NW15      30.64R WCI -18
MINOT          CLEAR      0  -5  79 W18       30.58R WCI -21
DICKINSON      CLEAR     -9 -14  78 NW10      30.54R WCI -27
BEACH          MOCLDY    -8 -11  84 NW6       30.60S WCI -21
CROSBY         CLOUDY    -2  -6  84 NW14      30.63S WCI -21
TIOGA          MOCLDY     0  -4  85 NW21      30.59R WCI -23
WATFORD CITY   CLOUDY     0  -6  78 W9        30.62S WCI -16
BISMARCK       CLOUDY     4  -1  80 NW22G29   30.59R WCI -18
GRAND FORKS    LGT SNOW  16  11  80 NW21      30.42R BLWGSNOWWCI  -1
FARGO          CLOUDY    17  11  77 NW22      30.42R WCI   0
BUFFALO SD       N/A     -7 -12  79 NW6       30.46R WCI -20
RAPID CITY     CLEAR     -5 -11  75 N8        30.55R WCI -20
$$

REGIONAL REPORTS...WYOMING/IDAHO/WASHINGTON

CITY           SKY/WX    TMP DP  RH WIND       PRES   REMARKS
GILLETTE       CLOUDY   -15 -18  86 S3        30.45R
SHERIDAN       CLOUDY   -12 -19  71 CALM      30.47S
BUFFALO WY     CLOUDY    -3 -14  59 W7        30.38R WCI -16
CODY           CLOUDY   -12 -16  82 S7        30.36R WCI -27
YELLOWSTONE LA   N/A    -15 -19  82 NW3       30.16R
IDAHO FALLS    CLOUDY     5   0  79 N3        30.31S
SALMON         CLOUDY    -6  -6 100 CALM      30.35S
BOISE          CLOUDY    18   9  68 SE9       30.26F WCI   7
SPOKANE        PTCLDY    14   5  67 NE8       30.32F WCI   3
$$

REGIONAL REPORTS...ALBERTA

CITY           SKY/WX    TMP DP  RH WIND       PRES   REMARKS
EDMONTON       CLOUDY   -13 -20  70 W2        30.70S
CALGARY        CRYSTALS -11 -17  77 NW2       30.50F
LETHBRIDGE     CLEAR    -20 -26  76 W7        30.59S WCI -37
MEDICINE HAT   CLEAR    -20 -26  76 S6        30.67S WCI -36
WATERTON GATE    N/A    -27 -35  68 CALM        N/A
CARDSTON         N/A    -18 -24  76 SE3         N/A
MILK RIVER       N/A    -18 -24  76 NW9         N/A  WCI -38
$$

REGIONAL REPORTS...SASKATCHEWAN

CITY           SKY/WX    TMP DP  RH WIND       PRES   REMARKS
SWIFT CURRENT  CLEAR    -11 -15  84 W13       30.56F WCI -32
REGINA         FLURRIES  -4  -8  84 NW14      30.62R WCI -24
SASKATOON      CRYSTALS  -8 -13  77 W7        30.69R WCI -22
VAL MARIE        N/A    -11 -17  77 CALM        N/A
ROCKGLEN         N/A     -9 -13  84 NW9         N/A  WCI -27
ASSINIBOIA       N/A    -15 -20  76 N1          N/A
$$



USA.gov is the U.S. government's official web portal to all federal, state and local government web resources and services.